Home > Weather > Boston > Past weeks

Flag for U.S.A. Weather for the Past 2 Weeks in Boston, Massachusetts, U.S.A.

Now
22 °F

Mostly cloudy.


Feels Like: 11 °F
Forecast: 8 / 23 °F
Wind: 10 mph from Southwest

Location: Logan International Airport

Current Time: Feb 12, 2016 at 5:55:33 PM

Latest Report: Feb 12, 2016 at 4:54 PM


Visibility: 10 mi

Pressure: 30.04 "Hg

Humidity: 46%

Dew point: 4 °F

Location of BostonLocation

Historic Weather in Boston — Graph

°F

Boston Temperature Yesterday

Maximum temperature yesterday: 31 °F (at 12:54 AM)
Minimum temperature yesterday: 12 °F (at 11:54 PM)
Average temperature yesterday: 23 °F

High & Low Weather Summary for the Past Weeks

 TemperatureHumidityPressure
High64 °F (Feb 1, 12:54 PM)100% (Feb 5, 12:54 PM)30.40 "Hg (Feb 5, 12:54 PM)
Low8 °F (Feb 12, 2:54 AM)31% (Feb 1, 3:54 PM)29.37 "Hg (Jan 29, 12:54 PM)
Average35 °F67%29.91 "Hg
* Reported Jan 28 3:54 PM — Feb 12 3:54 PM, Boston, Weather by CustomWeather, © 2016

Note: Actual official high and low records may vary slightly from our data, if they occured in-between our weather recording intervals... More about our weather records

Advertising

Boston Weather History for the Previous 24 Hours

 ConditionsComfort  
Time TempWeatherWind HumidityBarometerVisibility
3:54 PM
Fri, Feb 12
23 °FOvercast.9 mph40%30.05 "Hg10 mi
2:54 PM23 °FOvercast.8 mph38%30.06 "Hg10 mi
1:54 PM23 °FOvercast.5 mph40%30.07 "Hg10 mi
12:54 PM21 °FPartly sunny.8 mph41%30.11 "Hg10 mi
11:54 AM19 °FPartly sunny.8 mph41%30.13 "Hg10 mi
10:54 AM17 °FScattered clouds.13 mph45%30.17 "Hg10 mi
9:54 AM14 °FScattered clouds.10 mph42%30.18 "Hg10 mi
8:54 AM12 °FPassing clouds.14 mph46%30.20 "Hg10 mi
7:54 AM10 °FPassing clouds.10 mph50%30.20 "Hg10 mi
6:54 AM8 °FPassing clouds.14 mph52%30.19 "Hg10 mi
5:54 AM8 °FClear.14 mph49%30.16 "Hg10 mi
4:54 AM8 °FClear.14 mph49%30.15 "Hg10 mi
3:54 AM8 °FClear.13 mph49%30.14 "Hg10 mi
2:54 AM8 °FClear.16 mph47%30.12 "Hg10 mi
1:54 AM9 °FClear.21 mph47%30.10 "Hg10 mi
12:54 AM10 °FClear.16 mph48%30.05 "Hg10 mi
11:54 PM
Thu, Feb 11
12 °FClear.20 mph46%30.03 "Hg10 mi
10:54 PM13 °FClear.21 mph46%30.00 "Hg10 mi
9:54 PM13 °FClear.17 mph49%29.97 "Hg10 mi
8:54 PM14 °FClear.23 mph47%29.95 "Hg10 mi
7:54 PM15 °FClear.24 mph42%29.93 "Hg10 mi
6:54 PM17 °FPassing clouds.24 mph41%29.89 "Hg10 mi
5:54 PM19 °FPassing clouds.22 mph38%29.85 "Hg10 mi
Weather by CustomWeather, © 2016

See weather overviewHow to use our weather pages